Powrót do katalogu

OPS 4682 DEB

AktywnyPO
NORAD 1399·DEBRIS·🇺🇸 United States

Wystrzelony Apr 3, 1965 z Vandenberg Space Force Base

Loading…

Następne Przeloty (najbliższe 24 godziny)

TLE

ŚwieżeSource: Space-Track

Epoka: Sep 14, 2026, 02:06 UTC

1 01399U 65027E   26257.08812842 -.00000537  00000-0 -18117-2 0  9994
2 01399  90.2765  27.2747 0009199  60.4188 299.7850 12.99966820644654

Śledź OPS 4682 DEB w czasie rzeczywistym z AllMySat

Download on the App Store